Breckenridge, TX

8:41 AM CST on February 23, 2017 (GMT -0600)
Stephens County

Weather History for KBKD - November, 2013

Change the Weather History Date:

Tuesday, November 5, 2013

  Actual Average (KMWL) Record (KMWL)
Temperature  
Mean Temperature 67 °F -  
Max Temperature 72 °F 66 °F 89 °F (2005)
Min Temperature 62 °F 46 °F 34 °F (2010)
Cooling Degree Days 2    
Growing Degree Days 17 (Base 50)    
Moisture  
Dew Point 63 °F    
Average Humidity 86    
Maximum Humidity 97    
Minimum Humidity 70    
Precipitation  
Precipitation 0.00 in - - ()
Sea Level Pressure  
Sea Level Pressure 29.95 in    
Wind  
Wind Speed 10 mph (SSE)    
Max Wind Speed 17 mph    
Max Gust Speed 26 mph    
Visibility 10 miles    
Events Rain    
Averages and records for this station are not official NWS values.
T = Trace of Precipitation, MM = Missing Value Source: NWS Daily Summary

Daily Weather History Graph

Daily Weather History Graph

Search for Another Location

Airport or City:

Trip Planner

Search our weather history database for the weather conditions in past years. The results will help you decide how hot, cold, wet, or windy it might be!

Date:

Astronomy

Nov. 05, 2013 Rise Set
Actual Time 6:56 AM CST 5:40 PM CST
Civil Twilight 6:31 AM CST 6:06 PM CST
Nautical Twilight 6:01 AM CST 6:35 PM CST
Astronomical Twilight 5:32 AM CST 7:04 PM CST
Moon 9:08 AM CST (11/5) 7:48 PM CST (11/5)
Length of Visible Light 11h 35m
Length of Day
10h 44m
Waxing Crescent, 7% of the Moon is Illuminated
Nov 5
Waxing Crescent
Nov 9
First Quarter
Nov 17
Full
Nov 25
Last Quarter
Dec 2
New

Hourly Weather History & Observations

Time (CST) Temp. Dew Point Humidity Pressure Visibility Wind Dir Wind Speed Gust Speed Precip Events Conditions
12:15 AM 62.4 °F 59.5 °F 90% 29.99 in 10.0 mi SE 8.1 mph - N/A   Overcast
12:35 AM 62.6 °F 59.7 °F 90% 29.99 in 10.0 mi SE 12.7 mph - N/A   Overcast
12:55 AM 63.0 °F 59.9 °F 90% 29.99 in 10.0 mi SE 12.7 mph 17.3 mph N/A   Overcast
1:15 AM 63.0 °F 59.9 °F 90% 29.99 in 10.0 mi SSE 12.7 mph - N/A   Overcast
1:35 AM 62.8 °F 60.1 °F 91% 29.98 in 10.0 mi SSE 11.5 mph - N/A   Overcast
1:55 AM 63.0 °F 60.4 °F 91% 29.98 in 10.0 mi SSE 12.7 mph 16.1 mph N/A   Overcast
2:15 AM 63.1 °F 60.4 °F 91% 29.98 in 10.0 mi SSE 9.2 mph - N/A   Overcast
2:35 AM 63.5 °F 60.4 °F 90% 29.98 in 10.0 mi SSE 8.1 mph - N/A   Overcast
2:55 AM 63.5 °F 60.8 °F 91% 29.98 in 10.0 mi SSE 5.8 mph - N/A   Overcast
3:15 AM 63.1 °F 61.2 °F 93% 29.97 in 4.0 mi SSE 6.9 mph - N/A Rain Light Rain
3:35 AM 62.8 °F 61.7 °F 96% 29.96 in 5.0 mi SE 8.1 mph - N/A   Light Drizzle
3:55 AM 62.8 °F 61.9 °F 97% 29.96 in 7.0 mi SE 6.9 mph - N/A   Overcast
4:15 AM 63.1 °F 61.9 °F 96% 29.96 in 10.0 mi SE 9.2 mph - N/A   Overcast
4:35 AM 63.5 °F 61.7 °F 94% 29.96 in 10.0 mi SE 9.2 mph - N/A   Overcast
4:55 AM 63.5 °F 61.7 °F 94% 29.96 in 10.0 mi SSE 9.2 mph - N/A   Overcast
5:15 AM 63.7 °F 61.9 °F 94% 29.96 in 10.0 mi SE 8.1 mph - N/A   Overcast
5:35 AM 63.7 °F 61.7 °F 93% 29.96 in 10.0 mi SE 5.8 mph - N/A   Overcast
5:55 AM 63.5 °F 62.1 °F 95% 29.96 in 7.0 mi SE 4.6 mph - N/A Rain Light Rain
6:15 AM 63.3 °F 62.4 °F 97% 29.96 in 7.0 mi SE 8.1 mph - N/A   Overcast
6:35 AM 63.5 °F 62.6 °F 97% 29.97 in 4.0 mi SE 9.2 mph - N/A Rain Light Rain
6:55 AM 63.5 °F 62.6 °F 97% 29.97 in 5.0 mi SE 6.9 mph - N/A   Overcast
7:15 AM 63.5 °F 62.6 °F 97% 29.97 in 7.0 mi SE 9.2 mph - N/A   Overcast
7:35 AM 63.9 °F 62.8 °F 96% 29.98 in 10.0 mi SSE 6.9 mph - N/A   Overcast
7:55 AM 64.6 °F 63.1 °F 95% 29.98 in 10.0 mi SE 8.1 mph - N/A   Overcast
8:15 AM 65.3 °F 63.5 °F 94% 29.98 in 10.0 mi SSE 9.2 mph - N/A   Overcast
8:35 AM 65.5 °F 63.3 °F 93% 29.99 in 10.0 mi North - - N/A   Overcast
8:55 AM 66.2 °F 63.5 °F 91% 29.99 in 10.0 mi SSE 11.5 mph 17.3 mph N/A   Overcast
9:15 AM 67.1 °F 63.5 °F 88% 29.98 in 10.0 mi SSE 10.4 mph 20.7 mph N/A   Overcast
9:35 AM 67.6 °F 63.5 °F 87% 29.98 in 10.0 mi SSE 16.1 mph 23.0 mph N/A   Overcast
9:55 AM 67.1 °F 63.1 °F 87% 29.98 in 10.0 mi SSE 16.1 mph 26.5 mph N/A   Overcast
10:15 AM 68.2 °F 63.1 °F 84% 29.98 in 10.0 mi SSE 13.8 mph 23.0 mph N/A   Overcast
10:35 AM 68.4 °F 63.3 °F 84% 29.98 in 10.0 mi SSE 16.1 mph 23.0 mph N/A   Overcast
10:55 AM 68.9 °F 62.8 °F 81% 29.98 in 10.0 mi SSE 15.0 mph - N/A   Overcast
11:15 AM 69.1 °F 62.1 °F 78% 29.97 in 10.0 mi SSE 16.1 mph 24.2 mph N/A   Overcast
11:35 AM 70.3 °F 62.1 °F 75% 29.96 in 10.0 mi SSE 15.0 mph 24.2 mph N/A   Overcast
11:55 AM 70.5 °F 61.9 °F 74% 29.96 in 10.0 mi SSE 17.3 mph 23.0 mph N/A   Overcast
12:15 PM 70.2 °F 61.7 °F 74% 29.95 in 10.0 mi South 11.5 mph 18.4 mph N/A   Overcast
12:35 PM 70.3 °F 61.7 °F 74% 29.94 in 10.0 mi SSE 12.7 mph 21.9 mph N/A   Overcast
12:55 PM 70.2 °F 61.9 °F 75% 29.93 in 10.0 mi South 11.5 mph 20.7 mph N/A   Overcast
1:15 PM 70.0 °F 61.9 °F 75% 29.93 in 10.0 mi South 12.7 mph 19.6 mph N/A   Overcast
1:35 PM 70.2 °F 62.4 °F 76% 29.92 in 10.0 mi South 10.4 mph - N/A   Overcast
1:55 PM 70.9 °F 62.6 °F 75% 29.91 in 10.0 mi South 9.2 mph - N/A   Overcast
2:15 PM 72.3 °F 62.2 °F 70% 29.91 in 10.0 mi South 12.7 mph 18.4 mph N/A   Overcast
2:35 PM 71.2 °F 61.9 °F 72% 29.91 in 10.0 mi South 10.4 mph 17.3 mph N/A   Overcast
2:55 PM 70.9 °F 62.1 °F 74% 29.91 in 10.0 mi South 6.9 mph - N/A   Overcast
3:15 PM 70.9 °F 61.9 °F 73% 29.91 in 10.0 mi SSE 9.2 mph - N/A   Overcast
3:35 PM 70.7 °F 62.1 °F 74% 29.90 in 10.0 mi North - - N/A   Overcast
3:55 PM 70.7 °F 62.1 °F 74% 29.90 in 10.0 mi SSE 9.2 mph - N/A   Overcast
4:15 PM 70.2 °F 62.4 °F 76% 29.91 in 10.0 mi SSE 9.2 mph - N/A   Overcast
4:35 PM 70.2 °F 62.6 °F 77% 29.91 in 10.0 mi South 11.5 mph 18.4 mph N/A   Overcast
4:55 PM 70.3 °F 62.6 °F 76% 29.90 in 10.0 mi SSE 12.7 mph 18.4 mph N/A   Overcast
5:15 PM 69.8 °F 62.6 °F 78% 29.91 in 10.0 mi South 12.7 mph 17.3 mph N/A   Overcast
5:35 PM 69.8 °F 62.8 °F 78% 29.91 in 10.0 mi South 9.2 mph - N/A   Overcast
5:55 PM 69.3 °F 63.0 °F 80% 29.91 in 10.0 mi South 9.2 mph - N/A   Overcast
6:15 PM 69.1 °F 63.0 °F 81% 29.92 in 10.0 mi South 8.1 mph - N/A   Overcast
6:35 PM 69.1 °F 63.3 °F 82% 29.92 in 10.0 mi South 9.2 mph - N/A   Overcast
6:55 PM 69.1 °F 63.5 °F 82% 29.93 in 10.0 mi SSE 8.1 mph - N/A   Overcast
7:15 PM 68.9 °F 63.5 °F 83% 29.92 in 10.0 mi South 10.4 mph - N/A   Scattered Clouds
7:35 PM 68.7 °F 63.5 °F 83% 29.92 in 10.0 mi SSE 9.2 mph 17.3 mph N/A   Scattered Clouds
7:55 PM 68.4 °F 64.0 °F 86% 29.93 in 10.0 mi South 12.7 mph 18.4 mph N/A   Scattered Clouds
8:15 PM 68.2 °F 65.3 °F 90% 29.93 in 10.0 mi South 11.5 mph 19.6 mph N/A   Scattered Clouds
8:35 PM 68.0 °F 65.3 °F 91% 29.94 in 10.0 mi South 9.2 mph - N/A   Scattered Clouds
8:55 PM 67.6 °F 65.3 °F 92% 29.94 in 10.0 mi South 10.4 mph - N/A   Clear
9:15 PM 67.5 °F 65.3 °F 93% 29.95 in 10.0 mi South 9.2 mph - N/A   Clear
9:35 PM 67.1 °F 65.3 °F 94% 29.96 in 10.0 mi South 9.2 mph - N/A   Scattered Clouds
9:55 PM 66.7 °F 65.3 °F 95% 29.96 in 10.0 mi South 11.5 mph - N/A   Scattered Clouds
10:15 PM 67.1 °F 65.3 °F 94% 29.96 in 10.0 mi South 9.2 mph - N/A   Clear
10:35 PM 67.3 °F 65.3 °F 93% 29.96 in 10.0 mi South 11.5 mph - N/A   Clear
10:55 PM 67.6 °F 65.5 °F 93% 29.96 in 10.0 mi South 10.4 mph - N/A   Mostly Cloudy
11:15 PM 68.0 °F 65.5 °F 92% 29.97 in 10.0 mi SSW 10.4 mph - N/A   Overcast
11:35 PM 68.0 °F 65.5 °F 92% 29.97 in 10.0 mi South 10.4 mph 17.3 mph N/A   Mostly Cloudy
11:55 PM 67.5 °F 65.3 °F 93% 29.97 in 10.0 mi SSW 6.9 mph - N/A   Scattered Clouds